Showing default

CAPELLA-17 (ACADIA), 64583

Orbit data source: Space-Track

CAPELLA-17 (ACADIA), 64583 is a payload satellite owned by Capella Space (US) in SSO that was launched on Mon, 23 Jun 2025 UTC via an FALCON 9 launch vehicle from the Air Force Western Test Range (AFWTR). Payload-class satellites include a variety of spacecraft equipped with specific instruments for various scientific and technological missions. These include communications satellites like Starlink; space stations such as the ISS; scientific satellites like the Hubble; Earth observation satellites from companies like Planet Labs, Umbra, and HawkEye 360; GPS; miniature CubeSats for education and research; and military/defense satellites.

Loading next visibility...
Identifier
64583, 2025-135BH
Orbit
SSO
Country
Flag of USUS
Related business
Manufacturer
Capella Space
Mission
Operational Commercial Radar Imaging
Bus & Motor
ACADIA, Unknown motor
Mass
180 kg wet, ~150 kg dry
Launch date (UTC)
2025-06-23 (1 year ago)
Launch vehicle
FALCON 9
Launch site
Air Force Western Test Range (AFWTR)
Object type
Payload
Rocket body
Debris
Shape & HBR
Box + 2 Pan + 1 Dish + 1 Rod, 5.0 m
Radar Cross Section
0.463 m², Large (>1 m²)

Expand to show TLE details & history
Last TLE update: 19 hours ago

TLE from 19 hours ago
0 CAPELLA-17 (ACADIA)
1 64583U 25135BH  26249.09869721  .00003080  00000-0  30824-3 0  9998
2 64583  97.7735   1.5685 0006443  88.7381 271.4576 14.92129072 65913
Epoch: 2026-09-06T02:22Z
TLE epoch observation values (Epoch: 2026-09-06T02:22:07.438Z)
Latitude
-0.00006°
Longitude
-19.16117°
Altitude
594.229 km
Speed
7.563 km/s
True Right ascension
00h 06m 16s
True Declination
0° 00' 00"
Sunlit
Object was in full shadow at epoch
Visualization orbit readout
Latitude
Unknown
Longitude
Unknown
Altitude
Unknown
Speed
Unknown
Apparent Right ascension
Unknown
Apparent Declination
Unknown
Sunlit
N/A
Visualization observer readout
Local Sidereal Time
13:47:49
Azimuth
Unknown
Elevation
Unknown
Doppler factor
Unknown
Orbital elements
Apogee altitude
592.806 km
Perigee altitude
583.829 km
Semi-major axis
6,966.454 km
Eccentricity
0.00064
Inclination
97.7735°
RAAN
1.5685°
Arg. of periapsis
88.7381°
True anomaly
271.38379°
Mean anomaly
271.4576°
Eccentric anomaly
271.4207°
Mean motion
3.73272 °/min
Orbital period
96.44 mins
BSTAR
0.00030824
Loading maneuver chart data...
Computing Atmospheric mass density...
Loading historical data...
Loading historical data...
Loading historical data...
Loading historical data...
Loading historical data...
Loading historical data...
Loading historical data...

Documentation

Showing up to 5 results
|